• In Belarus
  • List of Countries
  • For 7 days
  • Water Temperature
  • Satellite Maps
  • Weather Map
  • Weather Widgets
  • user-avatar
    Login

    Hourly Weather Igls

    Today, 25 September, Monday

    Time Temperature Precipitation Wind Pressure Humidity
    00:00 +8°C° 0 mm 1 mps 686 mmHg 92%
    01:00 +7°C° 0 mm 1 mps 686 mmHg 92%
    02:00 +7°C° 0 mm 1 mps 686 mmHg 90%
    03:00 +7°C° 0 mm 1 mps 686 mmHg 89%
    04:00 +7°C° 0 mm 1 mps 686 mmHg 88%
    05:00 +7°C° 0 mm 1 mps 686 mmHg 85%
    06:00 +7°C° 0 mm 1 mps 686 mmHg 83%
    07:00 +8°C° 0 mm 1 mps 686 mmHg 81%
    08:00 +10°C° 0 mm 1 mps 686 mmHg 73%
    09:00 +13°C° 0 mm 1 mps 686 mmHg 65%
    10:00 +14°C° 0 mm 0 mps 687 mmHg 57%
    11:00 +15°C° 0 mm 0 mps 687 mmHg 55%
    12:00 +18°C° 0 mm 1 mps 687 mmHg 52%
    13:00 +19°C° 0 mm 1 mps 686 mmHg 50%
    14:00 +18°C° 0 mm 1 mps 686 mmHg 53%
    15:00 +18°C° 0 mm 1 mps 686 mmHg 55%
    16:00 +16°C° 0 mm 1 mps 686 mmHg 58%
    17:00 +14°C° 0 mm 1 mps 686 mmHg 67%
    18:00 +12°C° 0 mm 1 mps 685 mmHg 77%
    19:00 +8°C° 0 mm 0 mps 685 mmHg 86%
    20:00 +9°C° 0 mm 1 mps 686 mmHg 86%
    21:00 +9°C° 0 mm 1 mps 686 mmHg 86%
    22:00 +8°C° 0 mm 1 mps 686 mmHg 86%
    23:00 +8°C° 0 mm 1 mps 686 mmHg 86%

    Tomorrow, 26 September, Tuesday

    Time Temperature Precipitation Wind Pressure Humidity
    00:00 +8°C° 0 mm 1 mps 686 mmHg 85%
    01:00 +8°C° 0 mm 1 mps 686 mmHg 85%
    02:00 +8°C° 0 mm 1 mps 686 mmHg 85%
    03:00 +8°C° 0 mm 1 mps 686 mmHg 85%
    04:00 +7°C° 0 mm 1 mps 686 mmHg 86%
    05:00 +8°C° 0 mm 1 mps 686 mmHg 85%
    06:00 +8°C° 0 mm 1 mps 686 mmHg 84%
    07:00 +8°C° 0 mm 1 mps 687 mmHg 83%
    08:00 +11°C° 0 mm 1 mps 687 mmHg 75%
    09:00 +14°C° 0 mm 1 mps 687 mmHg 67%
    10:00 +16°C° 0 mm 1 mps 688 mmHg 59%
    11:00 +18°C° 0 mm 1 mps 688 mmHg 57%
    12:00 +18°C° 0 mm 1 mps 688 mmHg 55%
    13:00 +19°C° 0 mm 1 mps 688 mmHg 54%
    14:00 +19°C° 0.1 mm 1 mps 688 mmHg 57%
    15:00 +18°C° 0.1 mm 1 mps 687 mmHg 60%
    16:00 +18°C° 0.1 mm 1 mps 687 mmHg 64%
    17:00 +14°C° 0 mm 1 mps 687 mmHg 72%
    18:00 +12°C° 0 mm 1 mps 687 mmHg 81%
    19:00 +9°C° 0 mm 0 mps 687 mmHg 89%
    20:00 +10°C° 0 mm 1 mps 687 mmHg 89%
    21:00 +9°C° 0 mm 1 mps 688 mmHg 89%
    22:00 +9°C° 0 mm 1 mps 688 mmHg 89%
    23:00 +9°C° 0 mm 1 mps 688 mmHg 88%

    Day after tomorrow, 27 September, Wednesday

    Time Temperature Precipitation Wind Pressure Humidity
    00:00 +9°C° 0 mm 1 mps 688 mmHg 87%
    01:00 +9°C° 0 mm 1 mps 688 mmHg 86%
    02:00 +9°C° 0 mm 1 mps 688 mmHg 86%
    03:00 +9°C° 0 mm 1 mps 688 mmHg 85%
    04:00 +9°C° 0 mm 1 mps 688 mmHg 85%
    05:00 +9°C° 0 mm 1 mps 688 mmHg 84%
    06:00 +10°C° 0 mm 1 mps 688 mmHg 84%
    07:00 +10°C° 0 mm 1 mps 689 mmHg 83%
    08:00 +12°C° 0 mm 1 mps 689 mmHg 76%
    09:00 +15°C° 0 mm 1 mps 689 mmHg 68%
    10:00 +18°C° 0 mm 1 mps 690 mmHg 60%
    11:00 +19°C° 0 mm 1 mps 690 mmHg 58%
    12:00 +19°C° 0 mm 1 mps 690 mmHg 56%
    13:00 +20°C° 0 mm 1 mps 689 mmHg 55%
    14:00 +20°C° 0.1 mm 1 mps 689 mmHg 58%
    15:00 +18°C° 0.1 mm 2 mps 689 mmHg 61%
    16:00 +18°C° 0.1 mm 2 mps 689 mmHg 65%
    17:00 +15°C° 0 mm 1 mps 689 mmHg 73%
    18:00 +13°C° 0 mm 1 mps 688 mmHg 81%
    19:00 +11°C° 0 mm 1 mps 688 mmHg 89%
    20:00 +11°C° 0 mm 1 mps 688 mmHg 89%
    21:00 +10°C° 0 mm 1 mps 689 mmHg 88%
    22:00 +10°C° 0 mm 1 mps 689 mmHg 88%
    23:00 +10°C° 0 mm 1 mps 689 mmHg 88%

    28 September, Thursday

    Time Temperature Precipitation Wind Pressure Humidity
    00:00 +10°C° 0 mm 1 mps 689 mmHg 87%
    01:00 +9°C° 0 mm 1 mps 689 mmHg 87%
    02:00 +9°C° 0 mm 1 mps 689 mmHg 86%
    03:00 +9°C° 0 mm 1 mps 688 mmHg 86%
    04:00 +9°C° 0 mm 1 mps 688 mmHg 86%
    05:00 +9°C° 0 mm 1 mps 689 mmHg 85%
    06:00 +10°C° 0 mm 1 mps 689 mmHg 83%
    07:00 +10°C° 0 mm 1 mps 689 mmHg 82%
    08:00 +13°C° 0 mm 1 mps 689 mmHg 74%
    09:00 +16°C° 0 mm 1 mps 690 mmHg 66%
    10:00 +19°C° 0 mm 1 mps 690 mmHg 58%
    11:00 +20°C° 0 mm 1 mps 690 mmHg 56%
    12:00 +20°C° 0 mm 1 mps 690 mmHg 55%
    13:00 +20°C° 0 mm 2 mps 690 mmHg 54%
    14:00 +19°C° 0.3 mm 2 mps 690 mmHg 60%
    15:00 +18°C° 0.3 mm 2 mps 690 mmHg 66%
    16:00 +18°C° 0.3 mm 2 mps 689 mmHg 72%
    17:00 +16°C° 0.4 mm 1 mps 689 mmHg 79%
    18:00 +15°C° 0.4 mm 1 mps 689 mmHg 86%
    19:00 +13°C° 0.4 mm 1 mps 689 mmHg 92%
    20:00 +13°C° 0.2 mm 1 mps 689 mmHg 93%
    21:00 +12°C° 0.2 mm 1 mps 689 mmHg 93%
    22:00 +12°C° 0.2 mm 1 mps 689 mmHg 94%
    23:00 +12°C° 0.1 mm 1 mps 689 mmHg 93%

    29 September, Friday

    Time Temperature Precipitation Wind Pressure Humidity
    00:00 +11°C° 0.1 mm 1 mps 689 mmHg 91%
    01:00 +11°C° 0.1 mm 1 mps 689 mmHg 90%
    02:00 +11°C° 0 mm 1 mps 689 mmHg 89%
    03:00 +11°C° 0 mm 1 mps 689 mmHg 87%
    04:00 +11°C° 0 mm 1 mps 689 mmHg 86%
    05:00 +11°C° 0 mm 1 mps 688 mmHg 85%
    06:00 +11°C° 0 mm 1 mps 688 mmHg 84%
    07:00 +11°C° 0 mm 1 mps 688 mmHg 83%
    08:00 +13°C° 0 mm 1 mps 689 mmHg 75%
    09:00 +14°C° 0 mm 0 mps 689 mmHg 67%
    10:00 +16°C° 0 mm 0 mps 689 mmHg 60%
    11:00 +19°C° 0 mm 1 mps 689 mmHg 59%
    12:00 +19°C° 0 mm 1 mps 689 mmHg 58%
    13:00 +20°C° 0 mm 1 mps 689 mmHg 57%
    14:00 +19°C° 0.1 mm 1 mps 688 mmHg 61%
    15:00 +19°C° 0.1 mm 1 mps 688 mmHg 65%
    16:00 +18°C° 0.1 mm 1 mps 688 mmHg 70%
    17:00 +15°C° 0.1 mm 1 mps 687 mmHg 78%
    18:00 +13°C° 0.1 mm 1 mps 687 mmHg 86%
    19:00 +10°C° 0.1 mm 0 mps 687 mmHg 94%
    20:00 +11°C° 0 mm 1 mps 687 mmHg 94%
    21:00 +10°C° 0 mm 1 mps 687 mmHg 95%
    22:00 +10°C° 0 mm 1 mps 687 mmHg 95%
    23:00 +10°C° 0 mm 1 mps 687 mmHg 94%

    30 September, Saturday

    Time Temperature Precipitation Wind Pressure Humidity
    00:00 +10°C° 0 mm 1 mps 687 mmHg 94%
    01:00 +9°C° 0 mm 1 mps 687 mmHg 93%
    02:00 +9°C° 0 mm 1 mps 686 mmHg 93%
    03:00 +9°C° 0 mm 1 mps 686 mmHg 92%
    04:00 +9°C° 0 mm 1 mps 686 mmHg 92%
    05:00 +9°C° 0 mm 1 mps 686 mmHg 91%
    06:00 +9°C° 0 mm 1 mps 686 mmHg 90%
    07:00 +10°C° 0 mm 1 mps 686 mmHg 90%
    08:00 +12°C° 0 mm 1 mps 687 mmHg 81%
    09:00 +14°C° 0 mm 1 mps 687 mmHg 73%
    10:00 +18°C° 0 mm 1 mps 687 mmHg 65%
    11:00 +18°C° 0 mm 1 mps 687 mmHg 62%
    12:00 +19°C° 0 mm 1 mps 687 mmHg 60%
    13:00 +18°C° 0 mm 2 mps 687 mmHg 57%
    14:00 +18°C° 0.1 mm 2 mps 686 mmHg 60%
    15:00 +17°C° 0.1 mm 2 mps 686 mmHg 64%
    16:00 +17°C° 0.1 mm 2 mps 686 mmHg 68%
    17:00 +15°C° 0 mm 1 mps 685 mmHg 77%
    18:00 +13°C° 0 mm 1 mps 685 mmHg 86%
    19:00 +11°C° 0 mm 1 mps 685 mmHg 95%
    20:00 +10°C° 0 mm 1 mps 685 mmHg 95%
    21:00 +10°C° 0 mm 1 mps 685 mmHg 96%
    22:00 +10°C° 0 mm 1 mps 685 mmHg 96%
    23:00 +10°C° 0 mm 1 mps 685 mmHg 96%
    Show more